Kaiser, MO

6:42 PM CDT on September 20, 2019 (GMT -0500)
Fine Memorial

Weather History for KAIZ - August, 2019

Change the Weather History Date:

Sunday, August 25, 2019

  Actual Average Record
Temperature  
Mean Temperature 72 °F -  
Max Temperature 79 °F 85 °F 100 °F (2003)
Min Temperature 66 °F 63 °F 51 °F (2015)
Cooling Degree Days 7    
Growing Degree Days 22 (Base 50)    
Moisture  
Dew Point 68 °F    
Average Humidity 87    
Maximum Humidity 100    
Minimum Humidity 79    
Precipitation  
Precipitation 0.03 in - - ()
Sea Level Pressure  
Sea Level Pressure 29.90 in    
Wind  
Wind Speed 5 mph ()    
Max Wind Speed 13 mph    
Max Gust Speed 17 mph    
Visibility 9.9 miles    
Events Rain    
Averages and records for this station are not official NWS values.
T = Trace of Precipitation, MM = Missing Value Source: Averaged Metar Reports

Daily Weather History Graph

Daily Weather History Graph

Search for Another Location

Airport or City:

Astronomy

Aug. 25, 2019 Rise Set
Actual Time 6:33 AM CDT 7:50 PM CDT
Civil Twilight 6:06 AM CDT 8:17 PM CDT
Nautical Twilight 5:33 AM CDT 8:50 PM CDT
Astronomical Twilight 4:59 AM CDT 9:24 PM CDT
Moon 1:11 AM CDT (8/25) 4:08 PM CDT (8/25)
Length of Visible Light 14h 11m
Length of Day
13h 16m
Waning Crescent, 29% of the Moon is Illuminated
Aug 25
Waning Crescent
Aug 30
New
Sep 5
First Quarter
Sep 13
Full
Sep 21
Last Quarter

Hourly Weather History & Observations

Time (CDT) Temp. Dew Point Humidity Pressure Visibility Wind Dir Wind Speed Gust Speed Precip Events Conditions
12:56 AM 68.0 °F 62.1 °F 81% 30.04 in 10.0 mi Calm Calm - N/A   Overcast
1:19 AM 68.0 °F 62.6 °F 83% 30.04 in 10.0 mi ESE 4.6 mph - N/A   Overcast
1:56 AM 68.0 °F 62.1 °F 81% 30.01 in 10.0 mi East 5.8 mph - N/A   Overcast
2:56 AM 66.9 °F 62.1 °F 84% 30.00 in 10.0 mi East 5.8 mph - N/A   Overcast
3:56 AM 66.9 °F 62.1 °F 84% 29.99 in 10.0 mi East 5.8 mph - N/A   Overcast
4:56 AM 66.9 °F 62.1 °F 84% 29.99 in 10.0 mi ESE 3.5 mph - N/A   Overcast
5:56 AM 66.0 °F 63.0 °F 90% 29.97 in 9.0 mi SE 3.5 mph - N/A   Overcast
6:56 AM 66.0 °F 63.0 °F 90% 29.95 in 10.0 mi East 3.5 mph - N/A   Overcast
7:56 AM 66.9 °F 64.0 °F 90% 29.94 in 10.0 mi ESE 6.9 mph - N/A   Mostly Cloudy
8:39 AM 69.8 °F 64.4 °F 83% 29.98 in 10.0 mi SE 5.8 mph - N/A   Overcast
8:56 AM 69.1 °F 64.9 °F 87% 29.97 in 10.0 mi SSE 4.6 mph - N/A   Overcast
9:56 AM 70.0 °F 66.0 °F 87% 29.96 in 10.0 mi SE 6.9 mph - N/A   Overcast
10:56 AM 72.0 °F 66.9 °F 84% 29.95 in 10.0 mi SSE 8.1 mph - N/A   Overcast
11:56 AM 73.9 °F 69.1 °F 85% 29.93 in 10.0 mi South 6.9 mph - N/A   Overcast
12:56 PM 75.0 °F 69.1 °F 82% 29.92 in 10.0 mi SSE 6.9 mph - N/A   Overcast
1:56 PM 77.0 °F 70.0 °F 79% 29.88 in 8.0 mi SE 8.1 mph - N/A   Overcast
2:56 PM 78.1 °F 71.1 °F 79% 29.86 in 10.0 mi SSE 4.6 mph - N/A   Overcast
3:56 PM 77.0 °F 71.1 °F 82% 29.83 in 10.0 mi SSE 6.9 mph - N/A   Overcast
4:56 PM 75.9 °F 73.0 °F 91% 29.80 in 10.0 mi SSE 10.4 mph - 0.03 in Rain Light Rain
5:20 PM 75.2 °F 71.6 °F 89% 29.82 in 10.0 mi SSE 12.7 mph 17.3 mph N/A   Mostly Cloudy
5:48 PM 77.0 °F 71.6 °F 83% 29.82 in 10.0 mi South 8.1 mph - N/A   Scattered Clouds
5:56 PM 77.0 °F 72.0 °F 84% 29.80 in 10.0 mi SSE 10.4 mph - N/A   Partly Cloudy
6:56 PM 75.9 °F 71.1 °F 85% 29.81 in 10.0 mi South 6.9 mph - N/A   Clear
7:56 PM 75.0 °F 71.1 °F 87% 29.82 in 9.0 mi South 4.6 mph - N/A   Mostly Cloudy
8:56 PM 73.9 °F 72.0 °F 93% 29.82 in 10.0 mi South 6.9 mph - N/A   Overcast
9:45 PM 73.4 °F 71.6 °F 94% 29.84 in 10.0 mi SW 5.8 mph - N/A   Overcast
9:56 PM 73.9 °F 71.1 °F 91% 29.82 in 10.0 mi South 9.2 mph - N/A   Overcast
10:56 PM 73.0 °F 70.0 °F 90% 29.81 in 10.0 mi WSW 9.2 mph - N/A   Overcast
11:11 PM 73.4 °F 71.6 °F 94% 29.82 in 10.0 mi SSW 12.7 mph - 0.00 in Rain Light Rain
11:25 PM 73.4 °F 71.6 °F 94% 29.82 in 10.0 mi SSW 9.2 mph - 0.00 in   Overcast
11:40 PM 71.6 °F 71.6 °F 100% 29.82 in 10.0 mi South 6.9 mph - 0.00 in   Overcast